Probability
0 0 0 0 0 0 0 0 0 0 0 0 0 0 0 0 0 0 0 0 0 0 0 0 0 0 0 0 0 0 0 0 0 0 0 0 0 0 0 0 0 0 0
0 0 0 0 0 0 0 0 0 0 0 0 0 0 0 0 0 0 0 0 0 0 0 0 0 0 0 0 0 0 0 0 0 0 0 0 0 0 0 0 0 0 0
0 0 0 0 0 0 0 0 0 0 0 0 0 0 0 0 0 0 0 0 0 0 0 0 0 0 0 0 0 0 0 0 0 0 0 0 0 0 0 0 0 0 0
0 0 0 0 0 0 0 0 0 0 0 0 0 0 0 0 0 0 0 0 0 0 0 0 0 0 0 0 0 0 0 0 0 0 0 0 0 0 0 0 0 0 0
0 0 0 0 0 0 0 0 0 0 0 0 0 0 0 0 0 0 0 0 0 0 0 0 0 0 0 0 0 0 0 0 0 0 0 0 0 0 0 0 0 0 0
0 0 0 0 0 0 0 0 0 0 0 0 0 0 0 0 0 0 0 0 0 0 0 0 0 0 0 0 0 0 0 0 0 0 0 0 0 0 0 0 0 0 0
0 0 0 0 0 0 0 0 0 0 0 0 0 0 0 0 0 0 0 0 0 0 0 0 0 0 0 0 0 0 0 0 0 0 0 0 0 0 0 0 0 0 0
0 0 0 0 0 0 0 0 0 0 0 0 0 0 0 0 0 0 0 0 0 0 0 0 0 0 0 0 0 0 0 0 0 0 0 0 0 0 0 0 0 0 0
0 0 0 0 0 0 0 0 0 0 0 0 0 0 0 0 0 0 0 0 0 0 0 0 0 0 0 0 0 0 0 0 0 0 0 0 0 0 0 0 0 0 0
0 0 0 0 0 0 0 0 0 0 0 0 0 0 0 0 0 0 0 0 0 0 0 0 0 0 0 0 0 0 0 0 0 0 0 0 0 0 0 0 0 0 0
0 0 0 0 0 0 0 0 0 0 0 0 0 0 0 0 0 0 0 0 0 0 0 0 0 0 0 0 0 0 0 0 0 0 0 0 0 0 0 0 0 0 0
0 0 0 0 0 0 0 0 0 0 0 0 0 0 0 0 0 0 0 0 0 0 0 0 0 0 0 0 0 0 0 0 0 0 0 0 0 0 0 0 0 0 0
0 0 0 0 0 0 0 0 0 0 0 0 0 0 0 0 0 0 0 0 0 0 0 0 0 0 0 0 0 0 0 0 0 0 0 0 0 0 0 0 0 0 0
0 0 0 0 0 0 0 0 0 0 0 0 0 0 0 0 0 0 0 0 0 0 0 0 0 0 0 0 0 0 0 0 0 0 0 0 0 0 0 0 0 0 0
0 0 0 0 0 0 0 0 0 0 0 0 0 0 1 0 0 0 0 0 0 0 0 0 0 0 0 0 0 0 0 0 0 0 0 0 0 0 0 0 0 0 0
0 0 0 0 0 0 0 0 0 0 0 0 0 0 0 0 0 0 0 0 0 0 0 0 0 0 0 0 0 0 0 0 0 0 0 0 0 0 0 0 0 0 0
0 0 0 0 0 0 0 0 0 0 0 0 0 0 0 0 0 0 0 0 0 0 0 0 0 0 0 0 0 0 0 0 0 0 0 0 0 0 0 0 0 0 0
0 0 0 0 0 0 0 0 0 0 0 0 0 0 0 0 0 0 0 0 0 0 0 0 0 0 0 0 0 0 0 0 0 0 0 0 0 0 0 0 0 0 0
0 0 0 0 0 0 0 0 0 0 0 0 0 0 0 0 0 0 0 0 0 0 0 0 0 0 0 0 0 0 0 0 0 0 0 0 0 0 0 0 0 0 0
0 0 0 0 0 0 0 0 0 0 0 0 0 0 0 0 0 0 0 0 0 0 0 0 0 0 0 0 0 0 0 0 0 0 0 0 0 0 0 0 0 0 0
0 0 0 0 0 0 0 0 0 0 0 0 0 0 0 0 0 0 0 0 0 0 0 0 0 0 0 0 0 0 0 0 0 0 0 0 0 0 0 0 0 0 0
0 0 0 0 0 0 0 0 0 0 0 0 0 0 0 0 0 0 0 0 0 0 0 0 0 0 0 0 0 0 0 0 0 0 0 0 0 0 0 0 0 0 0
0 0 0 0 0 0 0 0 0 0 0 0 0 0 0 0 0 0 0 0 0 0 0 0 0 0 0 0 0 0 0 0 0 0 0 0 0 0 0 0 0 0 0
0 0 0 0 0 0 0 0 0 0 0 0 0 0 0 0 0 0 0 0 0 0 0 0 0 0 0 0 0 0 0 0 0 0 0 0 0 0 0 0 0 0 0
0 0 0 0 0 0 0 0 0 0 0 0 0 0 0 0 0 0 0 0 0 0 0 0 0 0 0 0 0 0 0 0 0 0 0 0 0 0 0 0 0 0 0
0 0 0 0 0 0 0 0 0 0 0 0 0 0 0 0 0 0 0 0 0 0 0 0 0 0 0 0 0 0 0 0 0 0 0 0 0 0 0 0 0 0 0
Wind_Speed
5 6 9 11 12 10 10 9 8 8 9 10 10 11 10 10 9 7 7 8 10 12 12 11 11 11 11 11 11 11 12 12 12 12 12 12 12 12 12 11 9 7 11
6 8 11 11 12 11 10 9 9 9 9 9 10 10 9 9 8 6 6 8 11 11 11 11 11 11 11 11 11 10 10 10 10 10 10 10 10 12 12 11 10 8 13
5 9 10 11 11 10 9 9 8 9 9 9 9 9 8 7 7 6 6 8 10 10 10 9 10 10 11 11 11 10 9 9 8 8 8 5 5 10 10 10 11 13 13
5 7 9 11 11 11 10 9 8 8 8 8 7 7 6 6 5 5 5 8 9 9 8 8 9 9 10 10 10 9 8 8 8 7 4 4 3 6 9 9 10 11 12
5 6 8 12 11 11 11 10 9 8 8 8 7 7 6 5 4 4 5 7 8 8 7 7 7 8 8 8 8 7 6 8 9 8 5 4 3 3 8 9 9 10 10
4 5 6 11 11 11 11 11 11 10 9 9 8 7 7 6 5 5 6 7 8 7 6 6 6 7 8 8 7 7 6 9 8 5 5 4 3 4 7 8 7 8 9
3 3 4 9 10 10 11 11 11 10 9 9 8 8 8 7 7 7 6 7 7 5 5 5 5 6 7 7 7 6 7 9 6 5 5 5 5 8 8 8 7 7 8
2 2 2 7 8 9 10 10 10 9 8 8 7 7 7 7 8 7 7 6 5 4 3 4 5 6 6 6 6 6 6 7 6 5 4 4 5 7 7 7 7 6 6
4 2 1 2 5 8 9 10 9 9 8 7 7 6 6 7 7 7 6 5 3 2 2 3 5 5 5 6 6 6 7 8 5 3 4 4 4 4 5 5 5 5 5
6 5 4 3 3 4 5 9 10 10 9 8 7 6 6 7 8 7 6 4 3 1 1 3 4 4 6 7 7 6 7 7 4 4 3 4 5 3 3 3 4 3 3
8 7 5 4 4 4 4 5 8 9 10 9 7 7 5 3 4 4 4 4 3 3 2 3 3 5 8 8 9 7 6 3 3 3 3 5 5 3 2 2 3 3 2
11 11 6 5 5 5 4 3 3 3 4 5 4 4 3 3 3 4 5 4 3 4 3 3 5 8 7 4 6 7 3 3 3 2 3 6 5 5 3 3 3 3 3
8 9 9 7 6 5 4 3 2 2 2 3 4 4 3 3 3 3 2 3 3 4 3 4 5 3 3 3 3 3 3 3 2 2 4 8 7 6 6 5 4 4 3
9 10 10 8 5 4 4 2 2 1 2 2 2 3 3 3 3 3 2 3 3 3 3 3 2 3 3 3 2 3 3 2 2 2 4 9 8 8 8 7 6 5 4
10 12 11 9 5 2 2 1 1 1 2 2 2 3 4 4 4 4 3 2 3 3 4 4 3 3 1 1 2 2 3 3 3 3 3 9 10 9 9 9 8 6 6
12 13 12 10 6 1 2 2 1 0 1 2 2 2 3 3 4 4 4 3 3 3 3 4 4 4 2 0 1 1 1 2 3 4 3 5 10 11 10 9 9 8 8
11 11 12 10 8 6 5 5 4 4 4 4 5 5 3 2 1 2 3 3 2 2 2 2 3 2 2 1 1 2 2 2 3 3 3 3 4 8 11 9 8 8 9
10 11 12 10 11 11 10 10 8 9 10 9 8 9 10 8 5 3 2 1 2 2 2 2 1 0 1 1 1 2 2 3 4 4 3 3 3 4 7 10 9 9 9
9 9 11 12 12 12 12 12 12 12 12 10 10 11 12 13 11 7 5 5 4 3 3 2 2 2 2 1 2 2 2 3 4 4 4 4 4 4 4 8 11 11 11
8 8 10 11 11 8 8 10 10 12 11 11 11 13 14 13 13 10 8 8 6 5 4 3 3 2 2 2 2 3 4 4 4 5 5 4 3 4 4 4 5 7 12
10 11 11 12 11 8 6 5 7 8 9 10 11 14 15 14 13 12 9 9 8 6 5 4 2 3 3 2 3 4 3 4 4 4 3 3 4 4 5 5 4 4 5
10 10 10 11 10 10 6 5 5 5 7 7 9 12 14 14 14 11 12 9 9 7 9 7 5 3 3 3 2 3 5 5 4 2 2 2 2 2 4 5 5 5 4
9 9 8 9 10 10 8 6 6 5 5 7 9 10 12 13 13 13 12 10 10 9 8 9 7 5 3 3 2 2 3 4 5 3 2 1 2 3 5 5 6 6 6
7 6 7 9 11 10 9 11 13 10 9 6 5 6 9 12 13 12 12 11 11 9 10 9 9 5 4 3 3 2 1 2 3 6 4 3 3 4 5 5 6 6 6
5 6 6 9 11 10 10 11 12 11 7 5 5 9 9 9 11 12 11 10 10 9 10 10 9 9 6 4 3 3 2 2 2 4 7 5 4 3 4 5 5 6 7
5 5 6 9 11 9 10 11 12 12 9 9 9 8 7 6 8 11 10 9 9 8 9 8 8 8 8 6 5 4 3 3 3 3 6 9 9 5 5 4 5 6 6
Wind_Direction
210 189 196 177 171 165 156 145 130 120 116 114 112 110 108 107 107 105 104 101 93 82 71 64 61 60 59 59 60 60 56 55 56 54 53 62 73 70 62 52 47 49 63
172 171 187 179 177 173 165 153 142 133 128 123 118 113 107 104 101 100 102 100 91 79 68 59 54 51 48 46 47 50 51 52 56 58 56 52 64 68 62 52 49 51 55
158 168 178 178 178 175 169 161 155 148 141 134 128 121 114 110 105 97 96 103 96 84 72 61 53 48 42 37 36 38 39 43 53 66 62 47 58 75 70 60 53 50 49
162 170 177 178 178 174 170 166 163 158 151 143 135 126 120 115 111 105 101 107 96 87 76 66 56 47 40 35 33 32 32 44 56 66 58 42 32 81 80 70 61 55 51
163 173 178 178 180 178 174 171 170 168 164 158 152 144 136 127 120 118 116 112 97 86 77 67 56 46 39 36 35 32 43 67 68 65 56 41 21 77 86 79 74 67 58
162 172 177 181 185 183 180 181 181 179 177 174 171 165 158 148 140 135 129 115 100 89 79 69 55 44 37 36 38 36 59 77 69 61 55 40 26 68 82 84 88 85 75
151 167 180 187 191 190 188 189 190 191 189 188 186 181 172 162 152 145 133 117 102 87 75 69 57 46 37 37 39 43 76 82 73 60 49 35 41 63 66 68 75 84 83
144 164 183 196 200 199 197 197 196 197 197 197 198 193 182 173 163 154 141 125 108 84 61 59 57 47 37 36 38 49 82 79 71 59 44 26 35 57 56 54 56 68 75
29 21 315 220 211 209 205 204 203 202 203 204 206 202 191 182 172 160 147 140 127 88 43 58 61 43 32 30 30 43 77 79 72 55 41 15 12 48 47 39 41 51 59
24 7 340 300 241 219 214 211 209 208 209 210 213 215 206 193 180 164 151 149 143 106 50 79 72 41 38 31 25 37 58 58 55 50 28 2 18 42 46 28 19 20 32
5 357 341 312 271 239 219 218 217 218 215 213 215 220 214 181 162 152 156 157 135 107 95 102 83 63 55 32 23 30 36 30 35 29 6 353 10 7 8 2 350 340 335
342 337 337 319 289 257 226 206 212 218 220 211 205 209 180 157 159 159 169 161 130 112 108 115 90 75 60 32 12 17 12 12 18 4 345 348 348 335 315 315 320 317 314
323 325 331 319 296 267 237 201 189 197 217 219 210 192 163 153 146 147 142 144 124 113 96 83 81 79 69 51 22 7 360 4 356 346 336 338 332 319 305 294 295 297 304
334 333 328 320 300 271 247 217 188 193 213 223 202 175 159 152 154 154 161 157 143 136 134 121 118 106 79 56 38 11 359 354 342 337 324 333 327 313 300 289 280 278 282
345 340 335 326 313 276 223 189 165 212 241 243 211 183 173 167 169 162 169 168 163 155 157 150 147 144 112 43 33 28 356 344 335 330 327 329 326 315 300 289 278 270 268
348 342 339 345 349 30 112 120 111 82 288 282 271 241 197 175 168 166 169 175 179 178 169 162 162 162 163 150 329 352 338 330 326 319 315 320 322 321 316 299 286 276 270
345 345 354 2 19 52 73 76 63 45 31 21 13 10 15 27 145 150 162 179 184 154 140 132 140 145 157 170 288 323 327 320 307 302 302 302 309 313 317 320 316 299 285
354 359 7 17 32 49 60 63 58 50 46 38 31 30 30 29 39 58 59 46 72 92 101 111 104 205 194 202 282 309 317 310 297 288 285 283 289 298 310 313 322 322 312
358 5 19 26 35 49 61 65 61 55 49 41 36 34 31 33 34 42 42 39 54 64 58 56 48 14 334 318 301 291 284 277 277 279 270 265 266 278 292 306 315 321 316
4 18 29 33 31 39 57 65 61 54 48 44 39 33 33 32 33 38 41 36 36 45 43 43 51 45 16 350 315 290 274 263 260 256 260 267 267 275 286 296 309 314 311
18 27 31 38 32 38 47 51 55 52 44 45 43 37 36 35 34 38 36 34 33 41 39 38 42 42 32 6 335 318 302 271 268 279 284 292 304 311 313 306 305 302 306
19 21 31 37 39 44 56 66 78 84 60 55 48 44 39 39 37 38 37 36 31 36 36 31 30 30 30 28 14 337 331 333 347 335 299 264 281 297 290 284 284 282 285
24 21 35 40 46 46 54 75 77 65 58 47 42 43 38 40 42 41 40 40 36 35 31 24 20 30 13 9 23 4 342 319 320 311 331 316 283 276 273 273 270 269 269
18 20 39 50 54 49 55 74 79 78 74 55 50 49 44 42 42 41 40 41 41 38 33 25 23 17 22 9 358 14 261 274 302 312 313 315 308 288 288 287 281 276 268
24 31 43 59 60 55 61 73 84 83 81 69 56 52 45 39 38 37 37 38 37 35 33 29 26 27 25 18 2 342 334 296 246 280 299 313 317 289 280 272 268 269 266
42 43 51 69 65 58 67 71 81 86 82 72 58 51 43 37 34 31 34 35 33 30 27 24 23 25 21 18 10 5 352 332 328 302 296 306 302 291 276 259 257 260 258